Theta_e
297 291 288 288 291 293 293 293 293 293 292 291 293 290 289 287 288 290 292 293 293 291 290 290 291 291 292 291 293 294 294 293 293 293 294 294 295 296 297 299 301 302 304 305 311 313 316 317 319 320 321 321 323 324 324 325 326 326 326 325 325 325 326 326 327 327 327 326 324 321 322 326 327 328 328 328 329 329 329 328 328 327 328 328 326 324
296 290 289 292 293 294 294 294 294 293 292 291 290 290 289 289 287 291 292 293 293 291 289 289 289 290 291 292 293 293 292 294 294 294 294 295 295 296 297 298 299 301 301 301 303 311 311 314 316 318 319 317 320 322 323 324 325 326 326 326 326 325 326 327 327 327 327 327 327 326 324 321 323 325 326 327 327 328 327 327 327 326 325 325 324 323
289 288 291 293 295 295 294 294 294 292 291 291 290 288 287 287 289 292 292 294 293 292 287 288 289 290 292 292 292 292 294 295 295 296 296 296 295 295 296 296 298 298 299 300 302 306 310 312 315 317 318 319 321 322 322 324 324 325 325 326 326 326 326 327 327 326 327 326 325 325 319 323 317 320 327 327 326 326 328 327 327 327 327 326 326 325
285 288 293 296 295 294 292 292 293 292 291 289 290 287 286 289 288 287 290 292 293 288 287 287 287 289 292 291 292 293 294 295 295 296 296 296 296 297 297 298 298 298 299 300 300 302 306 310 314 316 317 318 319 319 321 322 323 324 324 325 325 325 326 326 326 324 326 325 323 322 321 322 322 318 320 324 322 325 326 327 326 326 326 326 326 326
287 291 294 295 294 293 291 291 291 290 288 291 293 290 288 289 289 287 289 291 291 291 290 287 285 285 287 289 291 294 295 295 295 295 295 296 297 298 299 297 298 299 299 301 301 301 303 307 311 314 316 317 318 319 320 321 323 324 323 325 325 325 326 326 324 323 323 322 320 319 316 316 316 316 318 318 317 321 324 326 326 325 323 323 322 323
290 293 295 292 292 292 292 290 291 291 287 288 291 291 291 292 290 289 290 289 287 287 290 289 279 278 283 287 291 294 293 293 293 294 295 296 296 296 296 298 298 299 299 301 302 303 303 307 310 312 313 314 316 318 320 321 323 323 323 323 324 325 325 325 323 323 323 322 322 319 318 317 317 318 317 319 320 318 320 322 323 324 324 322 321 320
291 291 293 292 291 291 292 290 292 292 288 287 287 293 293 292 290 290 289 289 282 280 289 290 282 275 282 285 287 289 289 292 292 293 295 296 296 296 297 298 298 299 299 298 300 302 302 304 306 309 310 313 314 316 318 320 321 322 322 322 323 324 324 324 322 322 322 322 322 321 321 321 320 320 319 315 314 319 315 317 322 324 323 324 324 321
289 289 291 293 292 291 290 289 292 293 289 285 290 295 294 292 290 289 289 287 284 287 290 289 282 279 281 286 288 290 289 290 290 291 292 294 295 295 297 297 297 299 299 299 300 302 302 303 305 306 308 310 313 314 315 316 318 319 320 320 321 322 321 323 322 321 323 323 322 320 319 318 318 318 317 316 316 317 317 317 318 320 322 322 322 321
291 288 290 291 291 290 289 291 294 294 290 288 294 295 293 292 290 290 289 286 286 285 281 282 287 282 277 284 288 290 290 290 291 291 292 294 295 295 296 298 298 298 300 301 301 301 302 302 303 304 305 307 308 308 310 313 316 317 318 319 319 319 320 320 321 320 320 322 322 321 319 315 315 314 313 312 314 315 315 316 314 316 316 319 322 322
290 291 293 294 292 289 292 293 294 295 290 293 295 297 296 295 293 292 286 286 286 281 278 282 284 278 278 282 287 289 288 288 289 292 294 295 296 296 296 297 298 298 296 297 300 300 300 301 302 302 302 301 303 303 304 306 309 312 314 317 317 318 319 320 320 320 318 318 318 318 317 316 313 312 311 312 313 313 312 315 314 314 313 315 318 319
293 293 295 293 291 293 293 292 292 294 294 296 295 293 291 289 287 284 284 282 283 278 278 280 284 282 278 282 286 287 288 288 290 290 291 293 293 295 296 297 297 296 296 296 297 297 297 296 298 298 301 301 300 301 303 306 309 311 314 315 317 317 317 317 319 319 317 317 318 319 317 317 314 312 312 311 310 311 310 313 312 314 314 314 315 316
290 292 293 291 293 291 294 293 294 295 295 296 290 287 288 285 283 283 283 282 277 273 276 281 283 283 277 277 283 287 288 288 292 291 294 293 294 295 295 295 296 296 297 297 295 297 298 298 298 297 298 299 301 302 304 305 308 310 313 314 315 314 315 315 317 317 316 316 316 317 316 316 315 314 314 313 312 312 312 312 313 315 317 317 317 316
286 288 291 292 295 294 291 292 291 293 295 292 289 288 284 280 280 277 280 277 274 273 280 279 282 283 282 283 286 287 289 289 288 292 292 291 293 295 297 297 297 297 297 298 296 294 297 297 297 297 298 299 301 303 304 306 307 309 311 313 314 313 313 314 315 316 314 314 314 315 315 315 314 314 314 313 312 312 313 312 312 314 315 313 313 312
285 288 291 291 292 294 294 289 285 286 289 289 287 283 282 276 273 270 270 273 273 278 280 280 281 280 281 284 291 292 296 295 292 289 290 293 295 297 298 296 297 296 296 296 296 294 296 297 298 298 300 302 302 302 304 305 306 308 310 311 313 312 312 312 313 314 313 313 314 314 314 314 313 313 313 313 313 312 312 312 312 312 312 311 311 308
281 280 286 289 286 293 292 291 291 290 289 290 289 288 284 283 275 271 273 273 274 275 278 281 279 275 278 283 285 292 295 295 292 291 291 292 293 296 297 296 295 295 295 295 296 298 298 299 299 299 300 302 302 303 304 305 306 307 309 310 310 310 310 311 312 313 313 312 312 312 313 313 312 313 313 312 312 311 311 309 310 308 308 309 309 309
285 283 287 292 291 291 292 293 294 292 291 289 289 289 286 285 284 279 279 277 274 275 277 278 278 278 282 285 290 289 290 290 291 291 293 292 294 294 295 296 296 297 297 297 297 298 299 299 298 298 300 302 302 303 304 305 306 307 309 309 310 311 310 310 310 312 313 313 311 310 312 312 311 310 310 308 308 309 310 310 310 309 307 308 307 307
283 282 288 291 292 290 291 292 293 293 284 288 288 284 285 289 286 280 280 281 278 275 273 277 280 280 284 289 293 292 289 290 290 291 290 290 289 290 292 293 293 294 294 295 298 299 300 298 299 300 300 301 301 303 305 306 307 308 308 308 308 309 309 309 310 312 312 312 310 309 311 311 310 311 311 312 310 309 309 310 309 308 307 304 305 305
284 282 287 287 288 290 291 288 292 290 291 288 283 288 290 291 289 285 279 278 275 272 273 277 278 278 281 279 287 288 289 289 289 292 292 290 289 290 292 292 293 293 294 295 298 299 300 301 300 300 301 302 302 303 304 305 306 307 308 308 308 307 308 308 309 310 311 312 310 308 310 310 311 311 310 310 309 307 306 306 306 305 304 304 304 305
290 281 285 287 287 289 292 292 291 291 293 289 287 294 289 282 282 283 282 274 274 272 270 276 277 277 278 281 283 286 288 290 290 291 291 292 290 291 292 292 291 292 294 296 298 299 299 300 300 301 302 302 303 303 304 305 306 306 305 307 309 309 309 309 309 310 312 313 314 311 309 309 309 308 308 307 307 306 306 305 304 305 303 302 302 302
288 282 282 287 287 288 289 288 284 285 289 291 291 288 289 287 284 281 282 280 279 273 274 272 277 277 281 281 284 289 288 289 290 289 291 293 292 292 292 293 293 294 297 298 299 299 299 299 299 301 301 302 303 303 304 305 306 306 307 306 307 307 307 307 307 308 311 313 313 311 307 306 307 307 307 306 306 305 305 304 303 302 302 302 301 301
285 285 278 283 288 289 283 285 285 287 285 284 285 283 286 285 286 285 285 282 278 273 272 271 273 274 280 286 288 291 292 292 291 290 292 293 293 292 292 294 295 297 298 298 298 297 297 297 296 297 298 300 299 301 303 305 306 306 306 307 307 308 307 307 308 309 311 312 311 308 307 306 306 304 304 304 305 304 303 302 302 302 302 299 299 297
285 284 281 282 283 282 282 287 287 289 290 288 288 286 288 283 281 281 280 283 280 279 274 272 275 276 284 288 292 292 292 290 289 290 292 292 292 291 292 293 295 297 298 299 298 297 297 296 296 295 295 295 297 298 301 303 304 304 305 307 307 307 307 307 307 310 309 308 310 308 306 305 302 303 302 302 301 302 301 300 299 299 297 297 295 296
287 283 284 278 280 283 287 290 288 288 286 288 287 287 290 286 285 281 279 280 280 280 278 275 273 277 287 288 290 291 290 290 290 291 292 294 293 293 295 295 295 298 299 299 299 299 298 297 297 295 296 296 297 298 298 298 303 304 303 304 305 306 306 307 306 306 306 306 306 305 303 301 300 300 299 299 297 297 297 296 294 295 297 296 294 295
291 283 280 279 284 284 286 288 288 287 289 288 288 286 286 285 285 282 281 281 283 278 278 277 276 279 285 284 286 284 285 286 286 287 289 291 291 293 295 298 297 297 297 297 296 297 298 296 292 293 294 296 296 296 299 301 301 301 301 302 302 303 303 303 303 303 303 302 301 300 298 298 296 297 296 297 295 296 294 294 294 294 295 294 294 294
284 281 284 277 277 280 280 283 284 285 287 282 283 285 287 288 285 283 283 281 281 280 280 278 277 282 285 286 289 288 288 289 289 288 288 290 290 292 293 295 297 297 297 296 297 297 294 292 293 296 297 297 297 297 298 300 300 300 299 298 300 301 300 300 299 299 298 298 297 296 297 295 295 296 295 295 293 294 293 293 293 294 294 293 293 293
286 283 285 278 276 274 273 275 279 282 282 283 282 283 288 288 286 284 281 281 278 278 280 277 280 285 288 288 290 289 287 288 288 289 289 289 289 291 293 293 295 296 297 297 296 295 296 296 295 295 295 297 296 297 298 298 298 298 297 297 296 297 296 296 295 298 298 297 297 296 295 295 294 295 294 294 293 293 293 292 292 293 293 294 294 291
283 284 287 286 284 282 284 282 285 287 286 285 286 286 287 288 288 286 283 281 282 280 280 284 286 285 285 287 287 289 287 288 290 289 289 290 289 289 290 292 293 295 297 297 298 298 295 294 295 296 295 296 295 294 296 296 297 296 295 294 292 295 296 296 296 296 297 296 296 295 294 294 294 294 293 292 292 291 292 292 290 292 292 291 292 291
283 284 286 286 286 287 286 285 287 290 286 288 286 286 288 288 287 286 285 283 284 281 280 286 287 284 286 286 286 287 287 287 288 288 288 288 289 290 290 291 292 292 293 295 295 296 298 298 296 295 295 293 294 292 293 293 294 294 294 295 293 293 295 295 295 295 295 294 294 294 293 293 291 291 292 291 291 291 291 290 290 290 290 289 290 290
285 285 285 284 284 285 285 287 288 288 288 288 288 288 286 288 287 286 286 288 285 283 282 287 286 285 286 287 289 288 288 290 290 290 291 290 290 289 290 292 293 293 293 294 297 297 297 297 297 295 292 292 290 291 291 291 292 291 291 292 292 292 294 292 294 293 293 292 293 292 292 290 290 291 291 290 291 290 290 290 290 289 289 289 289 289
286 280 282 285 283 285 285 286 286 287 285 285 286 287 288 287 287 288 288 289 288 286 288 288 287 287 290 289 291 291 290 290 290 289 291 291 291 291 291 293 294 293 293 295 296 297 297 297 295 292 291 290 291 292 292 293 293 293 294 292 291 293 292 293 293 293 292 292 291 289 290 289 290 290 290 290 290 290 289 289 289 289 288 288 288 288
287 280 288 283 281 281 284 284 285 285 285 283 284 287 287 287 288 288 289 289 289 288 288 288 285 286 292 292 291 291 291 290 291 290 293 294 292 292 292 294 294 294 295 295 295 296 296 294 292 290 291 293 293 294 295 295 294 293 292 292 292 293 291 292 292 291 291 291 289 289 289 289 289 289 290 289 289 288 288 288 288 288 288 287 287 287
286 277 282 281 279 276 281 283 282 282 282 283 283 284 285 286 285 287 286 288 285 285 286 285 284 286 290 292 292 291 290 290 291 292 291 291 291 292 292 293 294 294 294 295 295 294 292 292 292 293 294 295 295 295 295 294 293 292 293 292 291 291 289 290 290 291 290 289 289 289 289 288 288 288 288 288 288 287 287 287 287 287 287 287 287 287
285 281 281 279 277 276 280 284 282 281 281 279 282 285 287 287 289 289 289 289 289 290 286 284 286 292 289 290 290 289 290 291 291 292 291 291 291 293 293 293 294 294 294 294 294 293 292 293 294 296 296 296 296 296 295 294 292 292 292 291 290 288 289 290 290 289 288 288 288 288 288 288 288 287 287 287 287 287 287 287 287 287 287 287 287 286
283 285 282 282 278 274 276 280 281 280 275 279 291 291 290 287 288 286 286 288 289 290 289 291 292 291 288 289 290 288 290 291 293 294 294 295 291 290 291 291 292 293 292 292 293 293 294 295 295 295 297 297 296 294 293 292 293 292 289 289 288 289 289 289 288 289 288 287 288 288 287 287 287 287 287 286 286 286 286 286 286 286 286 286 285 286
284 280 279 278 277 274 274 279 279 275 277 288 289 292 292 292 291 289 290 290 291 291 291 291 291 292 291 290 290 290 290 292 291 292 293 291 292 293 294 292 292 292 293 292 292 293 295 296 295 294 292 292 291 290 291 290 290 289 288 289 289 289 289 288 288 288 287 287 287 287 287 287 287 286 286 286 286 286 286 286 285 285 285 285 285 285
283 284 278 279 276 274 273 276 272 276 281 282 284 289 292 292 291 289 288 290 290 291 291 290 292 293 294 293 291 290 290 289 288 288 288 289 291 294 292 294 294 293 293 294 295 296 296 295 294 293 292 289 290 290 292 291 289 290 289 288 289 288 288 288 287 287 287 287 287 287 287 286 286 286 286 286 285 285 285 285 285 284 283 283 283 283
287 284 282 279 277 276 274 278 277 277 281 283 285 285 288 287 285 287 284 288 291 292 292 292 293 294 293 292 290 289 287 289 290 291 287 288 291 292 295 295 295 294 296 296 293 292 290 291 292 292 287 287 290 290 290 289 289 289 288 288 287 287 287 287 287 286 286 287 286 286 286 286 286 285 285 285 285 284 284 283 283 282 283 283 283 283
287 286 282 283 277 276 273 272 272 273 275 281 286 286 291 292 293 292 288 287 292 293 294 293 292 293 293 290 289 288 288 290 288 292 292 290 292 295 294 294 294 293 291 289 287 288 288 288 288 286 288 288 287 288 288 288 288 288 288 287 287 287 286 287 287 286 286 286 286 286 286 286 286 285 285 284 284 283 282 282 282 282 282 283 282 282
286 284 284 284 278 277 273 274 272 274 279 283 284 286 289 292 292 289 286 284 292 292 293 293 293 294 291 288 287 287 289 287 288 292 289 293 293 293 295 294 290 287 286 287 288 289 287 285 286 286 286 287 287 286 286 287 288 288 288 287 286 287 286 286 286 286 286 285 285 285 285 285 285 285 284 283 283 282 281 281 281 281 281 281 282 282
282 279 282 279 275 277 277 275 275 274 280 282 285 285 289 290 292 289 275 279 288 289 291 292 293 293 288 289 288 288 289 287 290 292 290 294 295 292 289 291 288 285 285 284 284 285 285 285 286 285 286 287 287 285 286 287 287 287 287 286 286 286 286 286 285 284 284 284 284 283 283 283 283 283 282 282 281 281 280 280 280 280 281 280 281 281
278 278 279 280 280 279 281 272 273 278 285 282 285 285 288 293 290 281 277 284 285 290 291 292 291 292 290 289 289 289 291 295 293 290 291 289 290 289 281 281 284 283 285 283 284 285 285 284 285 286 286 285 284 285 285 286 287 285 285 285 285 285 284 283 282 282 282 282 282 281 281 281 281 280 280 280 280 280 279 279 279 280 280 280 280 281
276 279 276 277 278 279 278 276 276 277 284 284 284 289 290 289 279 280 285 283 285 285 287 290 290 290 289 290 289 291 293 292 287 286 287 287 289 286 281 281 281 282 281 282 282 283 283 282 281 282 281 281 283 284 285 286 285 283 283 284 284 281 280 281 281 281 281 280 280 279 278 278 278 278 279 278 279 278 277 276 278 279 280 280 281 281
282 280 278 280 276 274 272 276 274 275 282 290 289 286 287 287 284 284 283 286 283 282 286 285 288 287 289 289 289 291 291 288 287 287 287 286 285 285 283 282 283 283 282 282 282 281 282 282 281 280 279 280 280 281 282 284 283 282 282 282 279 278 280 280 280 279 279 278 277 277 276 276 276 277 277 277 277 278 277 277 278 278 280 280 281 281
285 281 275 281 284 278 278 276 279 284 286 291 291 287 287 286 287 285 288 288 285 282 285 286 284 286 289 291 290 289 289 288 286 284 285 284 284 283 282 281 280 280 280 280 280 280 280 280 280 279 278 278 279 280 281 284 282 280 279 276 276 277 278 278 278 277 276 276 275 275 274 274 274 274 275 276 277 277 278 277 278 279 280 281 282 282
286 286 286 282 283 281 281 284 285 283 289 288 291 287 293 290 287 284 288 289 288 287 282 286 288 285 287 290 289 289 287 287 289 286 287 287 284 283 283 282 282 282 281 281 280 279 279 280 279 278 276 275 275 276 278 280 281 278 276 274 275 277 277 276 276 275 274 274 273 273 273 273 273 274 273 274 277 278 278 278 280 280 280 281 281 281
288 286 283 284 284 287 287 288 290 284 285 287 285 286 290 292 284 284 285 289 286 284 286 286 284 287 286 285 288 285 286 286 286 284 284 284 284 281 280 279 279 279 278 279 279 279 279 278 277 276 275 273 272 273 273 276 279 277 274 274 275 275 275 275 275 274 273 272 272 272 273 273 273 273 273 274 275 277 279 280 280 280 280 281 281 281
285 285 285 283 282 285 282 290 287 284 284 285 287 286 284 286 288 285 286 286 288 285 285 284 283 286 288 286 289 290 289 283 285 284 283 283 282 281 280 281 280 280 280 280 279 278 277 277 276 274 274 271 270 270 271 271 272 273 273 273 274 274 274 274 274 273 272 272 272 272 272 273 273 274 274 275 276 277 279 280 280 280 280 280 280 280
283 285 287 284 284 285 286 286 288 287 285 286 288 288 289 288 287 285 286 284 283 283 284 285 283 283 283 285 285 286 285 282 283 283 283 283 284 282 281 281 280 279 278 278 278 277 277 276 275 273 272 270 269 269 269 269 269 270 271 271 272 272 273 273 273 272 272 271 271 271 272 273 274 274 274 275 276 277 278 279 279 279 279 279 280 279
285 287 283 284 285 285 285 283 283 286 287 287 286 284 287 289 288 286 284 284 285 286 284 282 282 284 283 285 283 282 284 283 282 284 284 283 281 281 282 280 279 279 278 277 276 276 277 275 274 272 271 269 268 267 267 266 267 267 269 270 270 272 272 272 271 271 270 270 271 271 272 273 273 273 274 274 274 275 276 277 278 278 277 278 278 279
285 285 283 284 283 283 285 285 285 284 283 287 286 288 286 285 284 284 284 285 284 285 284 286 283 281 282 282 282 283 284 283 281 281 282 283 283 282 280 279 278 277 276 275 276 275 275 274 272 271 269 268 267 266 266 265 265 265 266 266 267 270 271 271 270 270 270 270 271 271 272 272 272 272 273 274 274 275 276 279 279 279 278 278 280 281
287 284 284 285 285 285 286 285 288 286 283 284 288 286 284 283 284 285 285 285 283 282 283 285 285 284 284 283 282 283 282 283 283 281 281 281 281 280 281 279 278 277 276 276 275 274 274 272 271 269 268 267 266 265 265 264 264 264 265 266 267 270 270 271 270 270 269 270 270 271 271 271 271 272 273 274 275 275 275 276 277 280 280 280 280 280
Wind_Speed
7 8 12 13 10 10 8 7 8 15 7 4 2 5 7 7 3 2 2 1 3 3 7 9 10 8 9 6 7 6 3 3 5 5 6 5 7 8 9 10 11 11 13 8 10 11 12 11 10 10 10 10 10 11 12 12 11 12 12 11 12 10 9 9 9 9 10 10 7 5 8 9 8 8 7 8 7 7 7 7 7 7 7 6 6 6
10 10 10 11 11 11 9 9 10 13 8 7 5 4 7 5 4 2 2 1 0 4 4 4 4 7 9 6 8 4 4 9 11 9 8 9 7 8 11 11 11 12 4 4 6 9 8 8 9 8 9 8 11 10 11 13 13 12 12 13 13 9 10 11 11 11 10 10 10 10 9 6 7 7 8 8 7 7 7 7 7 7 6 6 6 7
10 11 10 10 11 9 9 10 11 12 12 7 6 5 6 6 2 1 2 1 1 2 4 0 6 8 10 9 5 4 9 9 11 12 13 13 11 8 8 9 9 6 8 7 11 10 10 11 11 10 10 11 14 13 14 13 12 12 12 12 11 11 11 11 11 10 11 9 8 8 5 7 4 3 7 7 6 6 7 7 7 7 6 6 6 6
9 7 11 13 12 13 7 6 10 11 11 6 5 0 5 5 5 1 2 1 0 1 2 1 3 8 7 5 7 8 9 7 9 11 10 9 13 12 12 11 11 11 9 10 12 12 11 11 12 10 11 12 10 10 10 11 13 12 12 12 12 12 11 11 11 11 9 8 6 5 5 5 6 6 4 5 5 6 7 7 6 6 6 5 5 6
6 7 8 13 13 12 11 5 9 9 10 5 3 1 2 3 4 4 5 1 1 1 2 1 3 6 5 5 5 7 9 6 5 7 8 8 9 10 8 6 9 13 12 11 9 8 9 10 13 15 14 11 13 12 13 13 13 11 14 14 14 13 13 11 11 11 8 7 6 5 3 3 2 3 6 6 5 6 6 6 6 7 5 5 5 5
8 11 12 8 8 11 10 9 7 10 9 5 4 8 5 4 3 2 5 6 1 3 3 4 1 5 5 9 13 10 5 6 5 8 11 13 11 7 8 12 10 8 9 13 13 14 14 15 12 11 12 13 13 13 13 13 14 13 13 13 12 10 10 11 11 11 9 10 10 9 8 7 7 7 6 10 11 8 8 8 4 5 6 6 5 5
8 1 10 12 8 9 9 7 5 9 9 8 5 4 5 6 4 6 5 3 2 3 2 1 8 5 5 3 6 6 4 10 5 8 13 13 12 10 12 11 11 12 11 8 7 8 9 10 11 12 12 14 14 14 12 12 12 12 12 12 12 12 11 11 10 11 10 10 10 12 12 11 12 12 9 5 5 7 5 6 6 6 5 6 7 5
2 3 7 11 11 10 9 12 6 8 6 6 1 3 5 7 7 7 7 4 1 1 1 2 3 3 5 8 5 5 5 10 8 8 8 9 10 11 12 11 9 11 11 11 12 12 13 14 16 17 16 14 16 14 12 12 10 12 12 12 12 10 10 10 10 11 12 12 11 11 10 10 10 11 10 7 6 6 7 7 7 6 6 6 6 6
8 6 8 11 9 8 10 7 5 6 5 3 1 5 6 9 8 7 5 4 1 2 3 2 1 0 5 7 6 1 4 3 7 9 10 11 12 12 11 11 11 12 11 11 11 12 12 13 14 12 13 13 9 8 11 12 12 11 10 11 10 10 10 10 12 12 12 12 12 12 10 9 7 6 6 5 6 6 6 7 5 7 6 6 6 6
2 9 14 16 10 9 6 11 9 10 6 3 2 3 3 3 3 6 4 4 0 2 5 4 2 3 7 6 3 1 1 4 6 9 10 11 12 13 12 12 13 10 7 6 7 6 8 9 10 9 6 6 8 7 5 5 5 6 7 10 11 11 10 11 12 12 11 10 11 11 10 11 8 6 6 6 7 6 5 7 7 7 6 6 6 6
2 1 1 2 9 7 9 1 3 6 5 3 4 5 4 5 3 2 4 3 2 3 6 7 6 4 4 4 7 5 6 8 7 4 5 6 6 8 10 11 9 8 7 6 6 6 5 4 5 5 8 8 5 5 6 7 7 7 8 10 12 12 9 10 12 12 12 10 11 11 11 12 11 9 8 7 7 6 5 7 6 7 6 6 6 6
2 1 1 0 1 2 4 6 4 1 4 10 2 4 6 2 5 3 2 3 2 5 5 2 3 3 6 4 5 8 5 3 8 7 9 8 9 10 9 9 7 6 6 5 5 4 2 3 2 3 6 6 6 5 7 7 6 8 8 9 11 8 9 9 10 11 11 10 10 9 10 11 11 11 10 11 10 9 9 7 7 5 5 5 6 6
2 1 1 3 2 4 4 8 2 2 3 4 6 7 8 2 2 1 0 3 4 5 1 3 0 1 8 7 6 6 8 6 5 7 7 7 7 5 4 4 5 5 5 5 5 3 2 5 5 5 5 5 6 8 8 9 8 8 8 10 11 10 8 10 10 11 10 10 10 10 11 10 9 10 9 9 8 7 8 7 7 7 7 5 6 5
2 1 0 2 3 2 3 12 3 4 1 5 9 7 6 2 2 2 3 1 3 4 3 1 2 3 3 7 11 14 17 15 7 5 4 5 6 6 5 4 4 4 4 5 5 5 5 6 6 6 6 7 7 7 9 8 8 8 8 9 11 10 9 8 9 11 10 10 9 9 9 9 9 9 9 8 9 8 7 7 8 7 7 6 6 5
7 2 7 5 2 2 1 2 10 9 4 7 3 9 7 6 4 3 3 4 7 7 1 3 2 6 4 5 3 12 12 11 5 5 5 6 6 6 5 4 4 4 5 5 5 7 8 9 8 7 6 6 6 6 7 7 7 7 8 9 10 10 9 10 10 8 10 9 9 8 8 8 7 8 8 7 7 8 8 6 7 6 5 6 6 7
9 2 2 2 1 1 7 1 1 6 7 4 4 5 5 7 4 5 5 5 2 1 0 1 5 4 6 3 7 4 6 5 4 3 1 5 1 1 3 5 6 6 5 5 6 6 7 7 6 6 6 7 7 7 6 7 7 8 9 9 10 11 10 9 9 9 10 10 8 7 9 9 8 7 6 5 5 6 7 7 7 7 6 7 7 6
3 4 3 5 2 0 2 1 1 3 8 4 6 6 4 2 8 5 2 0 3 3 6 3 4 6 8 9 11 6 3 7 4 5 3 5 4 2 4 5 5 6 5 5 7 7 7 6 6 8 7 7 7 7 9 9 9 10 9 9 9 8 8 9 10 10 10 9 8 7 7 7 7 9 9 10 8 7 6 7 7 7 6 5 6 6
11 2 1 3 3 1 0 0 1 2 1 7 3 8 2 2 4 4 4 1 1 4 6 3 7 4 0 6 3 4 6 6 5 7 7 5 4 6 8 8 8 7 7 6 7 7 7 7 8 7 6 7 8 8 7 9 7 8 8 9 10 9 11 9 9 9 9 9 8 7 8 8 8 8 7 7 8 7 7 7 7 6 7 7 6 6
8 4 1 1 1 5 1 0 2 1 0 3 6 5 8 3 4 2 3 1 2 2 3 2 4 4 6 6 4 2 3 6 7 7 5 8 6 9 8 8 6 6 5 6 7 7 6 6 6 7 7 7 8 8 8 7 6 5 5 6 9 11 11 10 9 8 7 8 8 7 8 8 8 7 7 6 7 7 8 8 8 7 7 6 6 7
3 7 1 1 1 1 1 2 10 3 3 1 2 1 1 3 3 5 6 3 5 5 1 6 2 6 6 6 5 6 6 7 7 5 8 10 8 7 7 7 7 8 8 7 7 6 5 5 5 7 8 8 9 8 8 8 7 7 7 7 7 6 6 7 8 8 9 9 9 8 5 5 6 6 7 8 8 8 8 7 7 6 6 7 6 6
3 2 6 1 2 2 4 3 8 10 9 1 3 4 1 1 2 4 0 5 5 4 4 2 4 5 7 8 8 11 11 11 7 7 8 8 9 8 6 6 7 8 7 6 6 5 4 5 5 5 5 5 5 5 6 7 8 7 6 7 8 10 10 10 9 9 10 10 10 8 8 7 7 7 7 7 7 8 7 6 6 6 6 6 6 6
3 2 8 3 2 5 5 1 2 7 7 9 12 13 13 9 5 8 9 1 2 3 4 3 9 6 9 4 10 11 10 6 6 6 7 7 7 5 5 6 6 5 5 6 5 4 5 5 4 3 2 3 4 5 6 6 6 6 7 8 9 9 9 10 10 10 9 8 8 8 7 7 5 7 6 7 6 7 6 6 6 7 6 6 6 7
6 3 9 5 5 6 3 2 1 1 1 3 3 9 9 5 6 7 10 6 1 2 3 2 3 10 8 5 6 9 7 7 5 5 6 5 4 3 3 4 4 5 6 6 5 6 6 6 6 6 6 6 6 6 6 6 7 7 7 8 8 9 9 9 8 7 7 8 8 8 7 7 6 7 6 7 6 7 7 6 5 6 7 7 6 6
10 5 6 2 1 2 3 3 3 1 1 3 5 1 2 7 4 4 4 6 9 3 3 1 7 8 6 3 4 2 1 2 1 2 4 3 3 2 2 2 4 4 3 3 4 4 6 5 5 5 5 5 5 5 7 6 5 6 6 7 7 9 8 7 7 7 8 7 7 7 7 7 6 7 7 7 6 7 6 6 5 5 7 7 6 7
4 2 9 5 2 2 4 3 4 1 1 1 1 2 1 0 2 1 4 2 3 7 7 7 13 10 5 0 2 1 0 2 4 4 5 5 4 3 3 3 3 3 3 4 5 5 4 5 6 7 7 7 6 5 6 6 6 6 6 6 8 7 6 6 6 6 6 7 8 7 8 7 7 8 7 7 6 7 6 6 6 6 7 7 6 6
3 6 9 8 10 9 6 10 15 13 8 2 2 4 5 8 7 4 3 1 5 3 6 5 13 4 3 0 1 1 1 5 5 4 3 4 5 4 4 3 3 4 5 5 5 5 7 8 6 6 6 5 6 7 6 6 6 6 6 6 5 7 6 6 5 7 8 8 9 9 9 9 8 9 8 8 7 7 6 6 6 6 6 7 8 6
3 4 6 11 15 17 15 3 4 13 6 10 9 10 8 5 5 4 4 5 11 4 7 13 18 6 6 2 2 3 2 5 6 6 6 6 5 4 4 4 4 5 6 7 7 6 4 5 8 8 6 7 6 6 7 8 8 7 6 5 5 5 7 7 7 7 8 8 8 8 8 9 8 8 8 7 7 7 6 6 6 7 7 6 7 7
3 5 11 10 11 4 6 6 8 17 15 16 10 9 9 9 9 8 9 11 5 6 11 16 13 8 8 3 5 5 6 6 6 6 6 6 7 5 5 4 5 4 4 4 4 6 9 9 7 8 7 6 6 6 6 6 6 7 7 8 6 6 7 7 7 7 7 7 7 7 8 6 6 7 7 7 7 7 6 6 6 6 6 6 6 6
6 10 6 5 5 4 5 8 12 10 12 11 12 11 11 11 10 13 13 13 8 10 20 11 4 12 8 9 12 11 9 10 10 11 9 4 1 2 3 4 5 6 5 6 8 8 8 9 8 6 5 6 6 7 7 6 6 5 5 5 6 6 7 7 7 7 7 6 7 6 5 5 5 6 8 7 7 7 7 7 6 7 6 6 6 5
5 4 3 6 5 3 2 7 7 12 6 6 11 12 12 12 15 19 20 19 17 15 17 9 8 17 13 11 14 12 11 10 5 1 2 3 6 6 5 5 6 6 7 9 10 10 9 8 5 5 6 6 9 9 9 8 8 8 8 7 7 7 7 8 8 8 7 7 6 5 5 5 5 7 7 8 8 7 6 7 7 7 7 7 6 6
5 4 6 4 4 3 5 4 4 7 9 6 7 11 13 15 17 20 20 19 17 16 15 9 7 18 18 8 6 5 8 2 3 1 6 8 6 5 6 6 6 8 10 9 8 8 7 6 5 5 7 10 11 12 12 10 8 6 6 7 8 9 8 7 8 7 8 7 6 6 6 6 6 7 8 7 6 6 6 7 7 7 7 7 7 6
3 2 1 5 6 3 4 6 5 3 4 6 6 9 14 19 19 18 15 9 6 13 14 8 11 20 7 13 9 5 4 5 6 8 7 6 5 6 8 9 9 9 9 9 9 7 6 7 7 9 11 12 12 10 8 8 8 9 10 9 9 7 6 6 7 8 7 7 8 7 8 7 7 7 7 7 6 6 5 5 6 7 7 8 8 6
7 6 6 5 6 6 6 7 8 6 4 3 9 20 25 18 14 10 11 9 15 18 13 13 22 18 2 4 5 3 7 9 9 9 8 8 5 8 9 10 10 8 9 9 8 8 8 10 12 13 12 10 11 11 11 9 9 11 10 9 6 6 6 7 8 8 8 8 9 8 7 7 8 8 8 7 7 6 6 6 6 7 7 8 7 6
4 9 8 6 8 5 1 7 5 6 8 15 19 10 13 18 18 12 13 17 17 12 15 18 18 9 4 6 6 5 9 8 10 11 8 8 7 6 6 6 8 9 7 7 9 9 9 9 9 11 12 11 8 8 8 9 10 7 6 7 7 8 7 7 6 7 8 8 8 8 8 8 8 9 8 8 8 8 8 7 7 6 5 6 6 6
7 3 4 1 3 2 2 7 6 10 15 12 6 13 19 18 15 20 22 20 18 16 16 16 16 16 10 7 6 5 6 6 4 5 6 4 5 8 10 11 10 11 10 9 8 10 11 11 10 8 6 5 5 5 7 6 6 8 7 8 9 7 9 7 7 6 7 8 8 8 8 8 8 9 8 8 8 8 8 8 7 7 6 6 7 7
9 9 4 2 5 4 3 6 6 15 7 3 4 5 8 10 16 14 15 14 11 14 16 19 24 23 17 11 2 2 2 3 3 4 5 5 7 9 9 10 11 10 9 7 9 13 12 9 8 6 7 4 6 7 8 9 8 9 8 7 9 8 8 9 8 8 7 8 9 9 9 10 10 9 9 9 8 8 8 8 8 9 7 6 5 5
14 5 6 5 2 7 6 10 10 5 8 6 8 7 9 10 7 11 12 17 15 14 18 22 25 20 13 6 4 3 1 0 3 6 3 6 7 8 12 12 11 10 11 10 5 5 3 5 6 7 4 5 6 8 7 8 8 9 9 8 7 8 8 8 9 9 9 9 9 9 9 9 10 10 10 9 9 9 8 9 8 7 6 7 6 6
8 12 6 9 3 7 7 2 1 4 9 17 7 1 8 7 11 10 8 15 10 17 18 18 19 19 13 3 3 2 2 2 9 12 7 7 9 10 11 8 8 3 1 1 2 1 0 1 2 3 6 6 5 6 7 8 9 9 9 8 8 9 8 8 9 8 9 9 9 9 9 9 10 11 10 10 10 9 7 5 5 6 5 8 8 7
1 2 6 10 4 6 4 7 6 9 16 4 8 7 8 11 12 8 6 15 15 14 11 14 18 17 7 5 5 4 3 6 13 13 4 11 10 11 10 8 1 1 1 2 3 4 2 3 4 5 5 7 8 6 7 9 10 10 10 9 9 9 10 10 9 9 9 8 7 7 7 8 9 9 10 9 8 8 9 7 7 6 6 6 7 7
7 3 5 5 4 7 8 6 8 5 11 5 7 6 11 10 14 11 4 13 5 14 13 14 17 13 6 9 8 8 9 11 15 9 8 12 13 7 5 6 2 2 1 1 1 2 5 5 7 5 6 8 8 7 8 8 9 9 9 8 7 9 9 8 7 5 5 6 6 6 6 6 7 7 8 9 8 6 7 6 7 7 7 6 7 8
4 1 5 12 9 6 8 4 3 7 7 6 8 7 9 14 13 9 16 11 5 11 12 13 12 12 10 10 10 10 12 14 8 2 11 6 3 3 1 2 1 2 5 4 4 4 5 3 3 6 5 3 5 6 6 7 8 7 6 7 7 7 4 5 6 7 7 6 7 6 6 5 6 8 6 6 8 7 6 5 7 7 7 8 7 8
3 4 0 3 7 10 8 7 8 7 9 8 1 15 11 10 7 17 6 2 7 5 6 8 11 8 8 11 9 11 10 8 2 2 5 6 8 2 2 2 3 4 3 2 3 4 5 4 5 5 4 3 4 5 5 6 7 6 7 6 6 5 6 7 8 8 8 8 7 7 6 7 6 6 7 7 8 9 7 4 6 7 7 7 8 9
9 7 8 10 4 3 3 5 2 12 6 14 11 1 4 11 8 5 3 1 1 4 7 5 6 7 9 8 9 11 10 4 5 5 6 5 5 5 5 4 5 5 4 3 3 2 5 6 5 5 4 3 3 4 4 6 7 6 5 7 4 5 7 7 8 8 8 8 7 7 7 6 7 7 6 7 6 9 9 6 7 7 7 9 9 9
9 8 4 8 8 9 9 10 11 6 6 11 17 11 8 4 3 8 7 3 2 5 6 6 5 7 10 10 10 9 8 6 2 3 3 3 1 1 2 2 3 3 3 2 3 4 6 8 5 5 4 3 3 3 4 7 8 6 7 6 4 6 7 8 7 8 8 8 7 7 6 6 6 5 5 7 7 8 10 8 7 7 7 8 9 9
11 15 10 10 3 5 9 12 9 4 9 4 5 4 11 9 6 8 7 7 6 4 4 6 9 6 8 9 8 8 6 6 9 6 8 8 6 6 6 6 5 6 5 5 5 4 4 8 8 6 4 4 3 2 3 5 10 8 9 5 5 7 9 8 8 9 8 8 7 7 6 6 5 5 5 5 7 9 9 8 8 9 6 7 7 8
7 6 6 5 7 7 7 9 5 2 1 1 0 1 8 11 3 5 7 5 3 5 9 7 6 8 7 5 6 4 6 6 6 5 5 5 6 3 2 3 3 3 3 4 4 4 5 6 6 6 6 4 4 4 3 3 8 11 7 6 6 7 8 9 10 9 8 7 7 7 7 8 6 5 5 5 5 5 6 8 8 8 7 7 6 6
5 7 5 6 2 9 11 17 9 4 2 5 5 0 3 2 7 4 4 4 5 5 5 1 6 8 9 8 9 9 7 3 5 5 5 4 4 4 5 6 5 6 7 7 6 7 7 7 7 6 5 4 2 4 4 4 4 6 8 7 6 7 8 9 10 9 8 8 7 6 6 8 7 7 6 5 6 5 5 5 7 8 7 6 7 7
4 4 8 6 7 14 15 7 7 8 5 4 6 5 3 1 3 5 2 3 4 4 4 3 4 4 4 5 4 3 2 4 5 5 5 6 7 7 7 6 7 5 3 4 6 5 6 7 8 7 6 5 3 3 4 5 5 5 6 5 6 7 8 9 9 9 8 8 6 6 6 7 8 8 7 6 6 7 6 5 5 6 6 6 7 8
6 9 7 7 9 7 4 2 2 7 2 1 3 3 4 5 6 2 2 4 5 6 5 4 2 3 4 4 4 5 4 4 4 6 7 5 4 5 7 6 6 6 6 6 5 5 7 6 7 6 6 5 3 4 4 5 5 3 4 5 6 7 10 9 8 8 8 7 7 7 5 6 6 6 8 8 7 7 5 5 5 6 6 5 4 3
6 12 3 6 7 9 13 8 7 4 4 6 6 8 5 1 3 5 3 5 5 6 5 6 4 4 5 4 4 4 4 4 3 4 5 6 6 5 4 5 5 6 5 4 5 5 5 6 8 8 7 5 4 4 5 5 3 3 3 3 5 7 10 10 9 8 7 7 7 7 7 7 6 7 7 8 9 9 9 10 11 6 6 6 8 11
9 7 8 10 11 12 6 6 8 5 3 1 3 2 4 3 5 5 5 5 4 4 5 7 6 3 2 1 1 4 4 3 4 4 4 4 4 3 4 6 7 5 6 6 7 5 7 7 7 8 8 6 5 5 4 4 3 3 2 3 4 7 9 10 9 8 7 7 7 7 8 8 8 6 7 7 8 8 10 8 8 12 12 10 10 11
Wind_Direction
158 179 183 199 205 213 215 207 212 245 258 299 203 183 206 183 221 295 253 254 155 120 208 199 215 224 242 233 239 222 211 245 261 250 231 214 203 202 202 202 207 207 214 202 197 199 198 194 190 188 183 186 188 188 186 184 185 184 183 178 188 188 175 170 175 182 183 187 189 187 192 200 194 189 185 192 194 191 192 194 200 199 196 198 197 196
164 184 196 190 207 214 215 213 220 252 263 263 270 225 233 167 190 257 223 237 296 152 242 203 227 246 247 248 241 215 157 220 217 219 228 227 213 205 199 204 206 212 235 186 208 214 201 194 192 184 186 180 183 196 185 188 191 187 183 184 189 181 183 184 184 184 189 192 195 193 194 179 182 183 187 194 195 192 191 196 199 200 195 190 191 195
185 194 173 180 195 220 223 205 219 237 246 245 260 234 229 235 180 279 21 126 245 99 269 314 218 250 249 240 252 186 198 220 209 201 208 208 217 215 213 210 208 209 212 199 208 202 198 194 188 183 190 193 192 188 188 190 188 187 185 190 187 187 188 191 186 182 194 193 191 187 183 174 168 199 189 181 182 180 188 196 194 189 187 179 182 185
178 208 178 176 191 206 224 206 221 237 248 228 259 85 224 202 134 243 290 73 5 128 212 98 191 267 282 269 244 230 206 224 210 210 221 207 209 212 210 200 199 209 202 202 203 204 199 192 189 187 190 193 190 190 194 190 189 188 189 190 189 190 191 191 191 189 191 186 179 176 159 178 165 173 180 184 180 189 190 202 195 197 190 188 187 184
178 165 188 176 192 196 214 218 208 222 239 262 179 273 285 164 219 148 201 110 343 16 96 65 359 303 249 261 271 246 226 231 219 214 231 237 229 221 217 214 206 200 198 203 206 205 191 192 195 192 192 185 190 192 193 190 190 190 190 192 190 189 191 191 188 184 165 152 158 153 116 128 103 73 148 168 201 198 192 192 199 200 187 188 190 188
181 185 175 181 180 192 204 222 208 195 237 249 241 190 212 201 147 56 112 112 45 297 250 142 358 288 261 234 228 230 223 215 220 200 218 222 226 223 221 221 220 225 207 198 199 197 194 193 195 198 193 190 195 196 196 193 193 190 192 190 189 189 190 190 186 178 166 171 170 165 165 173 186 191 174 192 193 185 190 194 170 180 185 182 177 176
184 203 169 184 173 187 200 218 215 170 202 229 255 206 183 155 136 135 149 95 133 175 292 122 176 261 327 277 243 242 233 250 235 208 218 216 222 217 221 219 215 215 224 233 223 201 189 200 191 198 197 197 197 202 193 195 195 195 192 190 186 187 189 186 180 176 173 176 179 183 187 187 190 193 207 187 169 174 174 154 175 180 184 184 184 188
74 139 180 178 175 178 190 206 226 167 169 233 241 138 134 117 134 178 158 165 184 226 5 50 126 188 288 286 249 217 209 235 241 239 237 233 230 226 226 222 218 219 218 209 211 206 201 192 191 195 200 197 202 196 190 194 192 192 191 187 188 186 186 186 177 178 182 183 184 181 185 188 191 199 198 178 174 166 159 154 168 176 183 181 181 181
155 176 179 178 179 176 194 186 205 165 161 213 247 161 161 162 171 154 144 156 155 121 271 308 275 266 259 268 299 231 209 258 242 230 232 226 226 228 229 227 223 220 215 207 207 206 202 201 204 202 198 207 202 189 190 192 192 192 187 184 184 185 183 186 181 180 185 183 183 182 177 181 200 178 173 165 157 163 168 168 171 164 174 178 182 180
289 177 190 172 171 193 176 186 184 169 185 253 200 95 87 84 85 138 123 117 31 99 252 238 187 185 281 272 297 348 183 242 240 233 230 222 219 220 225 227 224 222 218 217 217 216 215 213 211 209 204 190 201 195 188 190 180 179 174 181 182 188 186 185 185 182 183 179 172 176 180 179 178 170 167 159 166 170 171 178 184 181 167 169 167 176
202 1 98 91 186 167 158 150 157 189 177 118 93 66 32 38 45 33 74 97 73 273 251 230 221 158 284 265 209 168 218 197 227 282 266 250 245 244 237 230 226 226 223 223 221 217 220 233 208 179 189 197 187 187 182 184 183 179 181 181 186 190 183 182 184 182 183 178 177 181 182 182 175 178 164 162 173 174 173 180 188 189 178 161 160 157
10 29 95 262 152 336 111 108 7 132 149 138 128 125 86 353 15 27 346 40 156 266 260 281 228 163 195 290 278 245 282 236 196 209 229 241 237 235 235 236 229 210 202 188 172 175 147 125 131 156 177 177 182 171 185 187 183 181 182 180 185 185 182 180 181 181 180 178 181 180 179 184 182 174 177 180 182 186 183 179 177 170 160 175 164 163
34 11 255 11 252 148 128 101 5 67 140 111 109 124 141 204 49 307 9 234 225 204 274 334 248 351 246 227 250 280 269 287 227 210 222 231 248 250 232 198 178 169 158 167 185 179 188 179 173 177 182 168 174 182 183 186 183 183 180 180 180 187 180 180 177 181 175 175 179 178 182 184 176 181 182 183 184 183 179 174 168 171 175 168 178 188
279 299 327 293 19 201 164 156 155 120 211 125 153 150 137 115 107 187 261 225 311 289 267 251 295 259 242 285 246 250 260 243 227 231 236 207 200 205 207 204 188 185 174 189 194 199 204 207 208 197 187 187 186 186 185 183 182 182 181 182 181 184 180 174 176 177 171 177 176 177 179 179 174 183 182 184 180 181 174 170 175 176 177 183 191 189
143 246 245 155 187 165 149 181 165 149 127 199 142 155 172 149 145 187 183 191 212 209 270 277 93 232 126 244 244 232 249 279 258 230 210 213 213 203 195 189 201 203 217 200 196 203 207 212 205 200 197 196 193 187 185 183 184 176 181 180 181 175 182 175 175 168 170 171 175 176 175 174 177 180 184 183 177 170 168 173 169 174 173 181 196 193
189 142 289 329 240 63 179 233 116 120 146 200 169 94 129 208 142 157 197 161 168 171 337 277 209 188 182 253 282 235 279 288 285 236 235 217 240 168 176 195 202 212 216 216 213 221 226 216 211 209 204 201 193 190 187 186 182 182 186 183 183 179 175 171 166 174 175 177 173 171 173 178 176 175 170 167 172 173 168 171 173 181 182 190 192 199
93 207 339 318 54 115 193 189 206 171 173 213 116 191 207 144 100 101 56 160 110 55 249 183 312 292 296 317 280 265 218 261 309 284 266 255 259 291 235 231 231 228 225 224 219 218 218 216 216 206 199 196 195 192 190 189 188 187 181 179 177 171 166 170 176 177 180 174 167 179 176 169 173 177 180 182 180 174 175 173 181 180 183 166 154 152
153 203 338 45 197 340 119 137 305 57 168 105 162 207 164 108 119 134 199 342 111 171 258 124 205 287 52 272 318 304 261 263 264 253 238 239 236 233 233 230 228 227 228 226 225 223 215 206 204 205 199 191 191 192 195 197 193 188 182 177 169 167 173 177 175 177 178 177 178 175 182 183 182 180 178 171 173 166 159 168 166 158 152 157 150 135
113 81 295 315 205 274 352 43 54 337 344 167 190 189 140 228 229 268 115 189 199 236 262 267 229 248 179 231 333 317 219 251 244 248 269 265 233 229 237 242 250 256 256 237 225 222 219 204 200 194 194 193 188 188 189 188 184 182 182 179 173 176 179 175 176 176 178 181 187 184 187 183 177 172 169 166 158 158 154 156 155 155 153 134 133 126
122 136 277 319 107 253 12 116 188 209 330 359 53 62 57 123 177 146 198 173 125 243 200 293 121 233 207 216 208 260 239 240 241 223 233 239 241 233 230 228 225 227 222 220 216 215 206 202 195 189 185 185 187 185 185 181 178 183 178 168 171 164 165 168 178 176 178 185 188 186 175 177 173 169 165 164 159 159 159 159 151 145 143 150 138 132
165 103 157 270 294 106 189 192 202 159 150 108 126 199 295 27 244 113 108 146 172 181 197 207 283 275 252 212 197 222 233 234 218 213 225 236 244 236 229 214 217 218 215 215 215 208 200 201 207 206 191 181 176 175 173 177 180 177 168 173 171 171 175 182 184 179 185 180 186 175 177 171 164 163 155 153 159 154 157 155 150 152 151 133 138 132
101 114 146 153 105 216 254 241 189 197 197 180 171 186 181 137 123 169 237 30 130 156 228 178 253 264 268 210 201 219 233 227 224 199 209 233 236 242 234 224 213 212 220 210 202 188 187 192 196 186 156 147 150 168 174 177 169 170 177 179 176 176 183 181 183 185 178 177 175 175 168 165 160 151 149 149 156 154 157 158 158 151 139 139 147 133
138 110 106 152 214 189 238 298 249 312 52 228 174 210 186 180 142 162 197 227 39 245 123 145 244 255 239 211 203 219 223 220 217 178 211 220 232 253 264 244 224 209 202 197 185 184 181 182 182 176 171 171 173 175 174 171 177 178 179 178 184 181 190 184 177 169 163 166 167 168 161 154 158 153 155 152 156 155 157 154 151 151 139 136 135 131
79 104 83 3 39 308 315 298 290 261 7 292 269 359 152 200 183 165 170 178 174 205 201 244 251 255 274 257 236 229 228 242 271 218 225 242 250 255 249 223 213 206 214 183 175 170 177 174 162 158 174 176 179 178 183 182 180 177 176 181 177 186 179 171 165 162 158 157 157 153 149 158 158 155 158 159 162 157 156 148 149 144 132 134 132 132
107 268 113 118 54 360 336 349 332 317 108 228 251 179 206 160 67 174 109 74 155 220 174 162 242 257 260 245 199 168 329 290 267 263 210 234 249 254 240 239 229 198 164 166 170 174 166 165 174 189 189 189 186 185 183 185 189 182 182 178 180 180 171 162 155 151 149 146 151 159 161 164 163 162 164 160 156 153 148 147 141 134 135 133 131 136
106 179 142 142 160 171 194 204 206 201 187 227 239 156 182 179 173 115 140 160 194 262 141 201 247 212 203 93 74 281 311 293 280 250 240 223 243 228 242 237 214 173 185 184 182 170 187 194 197 199 200 192 192 188 185 187 190 194 189 188 175 162 158 156 148 155 156 162 161 169 171 171 168 169 165 156 151 149 150 146 140 136 136 140 140 139
148 160 195 179 184 197 203 150 77 112 123 194 204 178 191 178 181 137 114 147 208 187 181 228 231 209 194 164 64 249 260 241 259 275 266 263 257 242 236 224 204 195 190 192 193 197 189 204 210 207 202 200 191 193 191 189 192 193 187 179 168 160 160 166 162 163 163 168 170 169 175 173 174 164 157 152 146 143 143 144 141 137 142 142 140 143
113 179 213 204 206 189 114 155 178 146 177 203 167 188 185 172 178 167 186 218 124 96 245 233 235 246 222 185 211 221 240 244 252 258 274 270 253 221 221 218 221 222 233 220 210 201 208 214 210 208 203 190 193 198 205 207 196 184 179 180 176 168 162 162 158 161 164 166 171 175 176 173 159 151 146 139 138 142 143 139 136 133 132 131 136 146
144 206 214 180 222 110 149 154 161 159 179 185 184 183 178 179 165 184 213 221 142 197 232 231 219 246 226 181 214 205 200 213 220 226 227 235 229 202 190 179 190 207 216 216 221 216 216 218 217 208 192 195 186 195 202 198 194 186 188 179 172 164 168 157 153 162 165 168 174 173 159 151 150 142 134 134 136 140 144 142 136 131 129 127 133 139
144 220 164 171 199 125 253 162 167 159 179 164 181 185 185 174 190 195 208 212 200 221 236 241 234 251 234 193 212 209 206 213 221 128 91 152 212 204 183 190 202 210 214 220 223 224 222 226 220 195 190 193 196 197 196 195 195 190 180 178 174 170 176 157 165 162 165 166 159 145 151 153 147 142 133 135 142 145 143 141 140 136 133 134 136 138
136 256 136 129 164 204 229 204 154 165 150 181 203 186 179 188 201 209 213 215 210 230 240 247 259 265 253 186 225 209 211 254 52 161 197 213 200 173 179 201 216 219 224 229 234 233 230 227 218 198 198 205 202 202 196 192 184 171 172 179 179 181 175 164 160 162 158 157 149 148 148 148 148 137 135 136 132 138 142 144 142 136 133 136 138 146
107 231 41 117 167 265 231 185 173 103 141 166 188 197 198 194 204 212 214 209 179 221 233 242 254 250 272 118 210 178 151 163 204 221 226 232 196 174 182 204 214 225 228 230 233 237 235 227 218 212 213 211 209 203 193 182 177 173 187 181 181 174 158 155 153 155 157 151 148 150 152 150 143 134 131 131 137 141 142 137 136 136 139 141 143 150
167 136 155 148 165 221 237 163 129 117 84 269 237 209 201 201 205 209 221 204 204 208 213 220 231 237 150 185 185 157 160 191 205 217 226 236 212 188 193 202 215 226 227 225 228 230 229 224 219 217 220 215 208 199 197 175 167 187 182 175 168 137 152 157 157 153 152 154 152 154 151 149 145 138 138 141 140 140 139 140 137 142 146 151 150 143
131 155 173 158 179 212 209 128 114 116 197 225 230 194 169 195 201 195 212 215 221 197 217 223 239 241 172 224 197 176 188 200 202 222 207 198 193 208 235 235 227 226 229 227 219 218 228 231 231 225 220 217 207 193 175 175 177 169 152 147 143 153 156 154 160 155 153 152 155 154 151 149 146 144 145 144 144 145 147 148 154 153 146 138 141 141
151 121 156 177 116 124 125 105 122 202 223 238 65 153 190 198 183 201 217 214 215 216 237 253 255 255 222 214 205 202 205 246 254 232 244 235 177 188 199 212 221 224 226 222 221 225 227 227 230 233 234 223 180 160 151 163 153 141 145 153 153 156 149 152 151 156 157 156 156 153 154 151 149 146 146 148 148 148 151 151 149 148 148 144 146 143
165 155 156 105 124 57 92 154 182 223 244 346 264 206 184 178 198 201 235 237 223 214 220 236 243 243 237 233 205 218 190 243 276 250 228 225 191 187 197 209 218 214 220 222 223 230 227 228 226 218 221 180 148 164 168 165 156 150 157 154 151 154 155 152 155 159 159 162 165 164 161 154 149 146 146 147 148 150 152 153 153 146 145 131 126 117
157 132 141 190 185 161 191 181 217 330 320 283 253 211 147 182 144 173 224 243 214 210 210 227 239 244 250 243 221 253 74 327 308 287 263 213 217 213 194 205 206 214 217 232 232 260 254 208 204 208 166 152 162 157 165 151 151 145 145 153 157 153 155 157 163 169 171 170 168 164 161 156 150 149 150 151 151 153 155 151 144 139 139 125 126 118
165 160 211 152 238 123 128 157 354 275 260 245 223 49 152 162 167 176 191 260 217 213 213 221 237 242 241 223 229 246 65 328 292 263 213 230 224 222 235 228 228 233 261 78 68 42 41 119 108 119 144 144 151 159 149 152 148 145 151 158 158 158 163 169 175 173 173 173 171 161 158 156 152 151 152 155 157 153 146 136 125 132 144 133 131 115
15 76 153 164 172 103 115 164 199 205 234 234 130 164 161 143 148 126 158 251 243 195 206 206 233 240 212 163 217 134 141 251 258 258 180 198 224 226 223 236 176 112 130 158 153 141 139 118 132 137 128 140 154 166 155 152 149 151 161 165 167 167 169 181 174 174 173 164 154 151 149 149 149 151 151 151 149 147 144 143 138 133 121 120 114 111
133 139 123 158 174 191 173 180 217 207 246 222 172 165 169 138 113 116 146 251 280 123 191 201 221 229 159 195 171 166 179 238 251 258 189 199 211 222 216 233 175 154 133 90 36 156 146 136 105 106 146 169 176 155 157 153 153 159 162 166 162 170 181 178 163 144 126 127 133 132 133 139 140 141 143 140 134 131 131 134 125 124 117 109 108 108
130 44 183 195 191 192 166 234 290 275 258 179 192 161 149 138 126 141 204 231 161 167 184 192 203 209 178 192 175 197 219 221 243 166 183 212 228 266 6 40 111 166 164 160 141 122 107 96 118 151 167 159 143 149 148 147 143 151 152 152 160 178 154 127 116 116 116 111 112 113 115 116 131 134 129 132 133 126 120 124 125 123 115 112 103 99
195 145 339 130 190 188 194 182 227 256 237 164 253 159 162 115 183 204 216 162 150 185 212 179 197 201 178 189 193 216 230 228 185 142 174 204 202 194 97 115 91 59 36 52 79 97 93 79 79 71 60 77 130 136 144 139 138 138 145 150 162 144 126 121 121 120 120 120 118 118 117 120 117 120 129 131 128 122 111 105 109 112 113 108 107 103
179 148 186 191 179 79 105 198 168 247 253 128 121 98 258 179 224 186 169 222 182 178 162 204 183 201 166 205 210 216 236 233 186 186 199 200 188 180 167 147 144 138 128 100 79 49 101 94 81 69 66 55 96 128 135 132 132 139 141 144 139 127 122 120 122 120 118 117 116 116 118 119 126 128 131 130 130 124 117 117 110 105 108 111 106 107
170 170 203 214 184 176 181 193 211 220 110 162 136 180 198 199 207 159 125 148 225 168 162 163 210 184 188 188 206 226 234 232 274 231 221 224 206 114 139 121 110 117 99 79 124 129 107 101 99 96 64 52 66 109 141 138 138 137 134 135 130 117 114 116 117 117 117 117 117 117 115 117 116 116 123 131 128 119 119 117 113 108 113 117 118 121
194 200 174 188 174 172 197 218 232 215 166 216 177 149 170 196 172 188 154 165 167 232 194 146 191 206 194 192 198 201 220 219 222 191 176 203 197 187 177 175 167 160 155 142 136 127 120 131 131 118 85 42 41 48 111 144 139 140 140 155 135 137 132 128 126 122 123 123 122 118 118 110 112 117 121 129 131 125 123 121 124 115 117 116 118 121
186 188 122 117 216 214 254 224 222 107 292 244 32 251 165 186 221 131 137 134 235 187 172 174 186 181 198 199 178 235 213 215 198 192 216 207 191 179 123 108 88 93 108 106 110 115 121 114 112 116 109 60 25 32 44 100 143 145 154 140 140 134 132 130 127 123 125 124 124 129 130 119 109 101 100 101 95 108 120 130 130 123 122 114 113 120
211 164 135 191 194 170 238 234 211 202 211 229 208 250 302 245 184 161 140 167 179 170 169 191 163 179 184 170 189 204 228 181 189 200 194 186 184 172 166 162 170 166 157 157 159 136 130 132 126 126 124 98 21 38 48 83 75 117 136 141 137 134 131 129 127 126 128 130 131 131 132 125 124 115 100 97 95 91 98 103 113 116 121 127 130 133
255 187 179 185 168 191 233 220 225 197 193 209 166 148 199 213 202 208 187 176 142 142 135 161 128 108 126 161 194 180 197 179 158 176 181 192 189 181 178 175 168 166 176 150 150 145 135 141 143 141 131 115 70 66 69 73 93 105 113 117 125 128 124 124 133 135 136 132 133 130 130 123 122 119 110 96 99 103 96 83 92 111 120 136 144 144
163 134 215 181 198 243 307 5 42 74 95 180 241 274 209 188 195 130 71 102 117 108 94 65 82 150 131 148 149 132 145 212 198 174 178 192 191 191 189 176 173 164 150 147 154 151 151 146 136 136 122 115 98 85 99 93 73 79 111 123 130 135 129 128 122 122 124 129 125 127 124 122 121 119 115 107 88 68 63 88 95 103 89 61 36 63
109 193 171 131 212 220 216 214 128 155 224 240 222 216 227 260 124 124 105 111 126 131 138 117 73 50 99 115 139 138 163 203 215 170 189 196 203 194 162 154 149 144 141 135 122 123 120 130 136 134 128 117 114 108 98 111 115 77 67 105 129 133 131 131 128 127 132 134 133 131 130 127 123 123 122 121 119 110 91 76 78 79 97 100 93 91
179 187 148 186 199 222 217 186 182 141 120 215 168 212 207 188 130 139 175 183 196 183 162 140 130 119 117 106 140 130 150 168 207 170 176 193 212 187 167 152 147 142 145 144 132 135 136 134 131 126 126 136 123 120 128 100 109 151 108 94 134 140 138 139 135 136 138 141 147 148 140 138 133 136 130 131 128 123 118 113 87 90 97 104 111 111